Burley in Wharfedale, United Kingdom
Current Conditions -  °F | °C
As of 1:50 AM on Saturday 22 Nov 2014 (Local Time) from EGNM Reporting Station
Light Rain Light Rain  
Wind Chill: 38°   Ceiling: Unl
Heat Index: 45°   Visibility: 0.18mi
Dew Point: 45°   Wind: 14mph
Humidity: 100%   Direction: 140°SE
Pressure: 29.8"   Gusts: NA
Location:  53.91°N, 1.76°W
Report Text: EGNM 220150Z 14012KT 110V180 0300 -RA FG VV/// 07/07 Q1009
Loading
Personal Weather Stations






























Interactive Weather Map New forecast layout! Learn more

10-Day Weather Forecast

Advertisements
Track Severe Weather on mobile